Rochelle, IL

9:04 PM CST on November 16, 2019 (GMT -0600)
Rochelle

Weather History for KRPJ - August, 2019

Change the Weather History Date:

Wednesday, August 14, 2019

  Actual Average (WUND) Record (WUND)
Temperature  
Mean Temperature 70 °F -  
Max Temperature 79 °F - - (-1)
Min Temperature 62 °F - - (-1)
Cooling Degree Days 6    
Growing Degree Days 20 (Base 50)    
Moisture  
Dew Point 65 °F    
Average Humidity 86    
Maximum Humidity 100    
Minimum Humidity 61    
Precipitation  
Precipitation 0.03 in - - ()
Sea Level Pressure  
Sea Level Pressure 29.96 in    
Wind  
Wind Speed 4 mph (NNW)    
Max Wind Speed 15 mph    
Max Gust Speed 21 mph    
Visibility 8 miles    
Events Fog , Rain    
Averages and records for this station are not official NWS values.
T = Trace of Precipitation, MM = Missing Value Source: NWS Daily Summary

Daily Weather History Graph

Daily Weather History Graph

Search for Another Location

Airport or City:

Astronomy

Aug. 14, 2019 Rise Set
Actual Time 6:03 AM CDT 7:58 PM CDT
Civil Twilight 5:32 AM CDT 8:28 PM CDT
Nautical Twilight 4:56 AM CDT 9:04 PM CDT
Astronomical Twilight 4:16 AM CDT 9:44 PM CDT
Moon 7:53 PM CDT (8/14) 4:58 AM CDT (8/14)
Length of Visible Light 14h 55m
Length of Day
13h 55m
Waxing Gibbous, 99% of the Moon is Illuminated
Aug 14
Waxing Gibbous
Aug 15
Full
Aug 23
Last Quarter
Aug 30
New
Sep 5
First Quarter

Hourly Weather History & Observations

Time (CDT) Temp. Dew Point Humidity Pressure Visibility Wind Dir Wind Speed Gust Speed Precip Events Conditions
12:15 AM 66.9 °F 66.9 °F 100% 29.95 in 7.0 mi East 4.6 mph - N/A   Mostly Cloudy
12:35 AM 65.8 °F 65.8 °F 100% 29.95 in 5.0 mi Calm Calm - N/A   Scattered Clouds
12:55 AM 64.8 °F 64.8 °F 100% 29.94 in 3.0 mi Calm Calm - N/A   Clear
1:15 AM 64.6 °F 64.6 °F 100% 29.94 in 2.5 mi Calm Calm - N/A   Clear
1:35 AM 63.5 °F 63.5 °F 100% 29.95 in 0.5 mi Calm Calm - N/A Fog Fog
1:55 AM 62.6 °F 62.6 °F 100% 29.94 in 0.2 mi Calm Calm - N/A Fog Fog
2:15 AM 62.6 °F 62.6 °F 100% 29.94 in 0.5 mi Calm Calm - N/A Fog Fog
2:35 AM 62.6 °F 62.6 °F 100% 29.94 in 0.5 mi Calm Calm - N/A Fog Fog
2:55 AM 62.8 °F 62.8 °F 100% 29.94 in 1.2 mi Calm Calm - N/A   Overcast
3:15 AM 64.2 °F 64.2 °F 100% 29.96 in 5.0 mi Calm Calm - N/A   Overcast
3:35 AM 64.8 °F 64.8 °F 100% 29.95 in 5.0 mi Calm Calm - N/A Rain Light Rain
3:55 AM 65.3 °F 65.3 °F 100% 29.94 in 4.0 mi Calm Calm - N/A Rain Light Rain
4:15 AM 65.1 °F 65.1 °F 100% 29.94 in 5.0 mi East 3.5 mph - N/A   Mostly Cloudy
4:35 AM 64.9 °F 64.9 °F 100% 29.94 in 7.0 mi Calm Calm - N/A   Overcast
4:55 AM 64.4 °F 64.4 °F 100% 29.94 in 5.0 mi Calm Calm - N/A   Mostly Cloudy
5:15 AM 63.7 °F 63.7 °F 100% 29.94 in 4.0 mi Calm Calm - N/A   Clear
5:35 AM 63.0 °F 63.0 °F 100% 29.94 in 2.0 mi Calm Calm - N/A   Clear
5:55 AM 62.1 °F 62.1 °F 100% 29.94 in 1.5 mi Calm Calm - N/A   Mist
6:15 AM 62.6 °F 62.6 °F 100% 29.95 in 1.5 mi Calm Calm - N/A   Mostly Cloudy
6:35 AM 63.9 °F 63.9 °F 100% 29.95 in 5.0 mi Calm Calm - N/A   Overcast
6:55 AM 64.6 °F 64.6 °F 100% 29.95 in 5.0 mi Calm Calm - N/A   Overcast
7:15 AM 64.9 °F 64.9 °F 100% 29.95 in 5.0 mi Calm Calm - N/A   Overcast
7:35 AM 65.5 °F 65.5 °F 100% 29.95 in 5.0 mi Calm Calm - N/A   Overcast
7:55 AM 65.5 °F 65.5 °F 100% 29.96 in 7.0 mi Calm Calm - N/A   Overcast
8:15 AM 66.2 °F 66.2 °F 100% 29.95 in 7.0 mi Calm Calm - N/A   Overcast
8:35 AM 67.3 °F 67.3 °F 100% 29.95 in 7.0 mi SSW 3.5 mph - N/A   Overcast
8:55 AM 69.1 °F 68.5 °F 98% 29.95 in 7.0 mi SW 4.6 mph - N/A   Overcast
9:15 AM 70.2 °F 68.5 °F 95% 29.95 in 7.0 mi West 4.6 mph - N/A   Overcast
9:35 AM 70.9 °F 68.5 °F 92% 29.96 in 10.0 mi West 6.9 mph - N/A   Mostly Cloudy
9:55 AM 72.5 °F 68.5 °F 87% 29.96 in 10.0 mi WNW 8.1 mph - N/A   Overcast
10:15 AM 72.1 °F 67.5 °F 85% 29.96 in 10.0 mi NNW 8.1 mph - N/A   Scattered Clouds
10:35 AM 73.4 °F 66.6 °F 79% 29.96 in 10.0 mi NNW 4.6 mph - N/A   Scattered Clouds
10:55 AM 74.1 °F 64.6 °F 72% 29.96 in 10.0 mi WNW 5.8 mph - N/A   Scattered Clouds
11:15 AM 75.0 °F 64.6 °F 70% 29.96 in 10.0 mi West 5.8 mph - N/A   Scattered Clouds
11:35 AM 75.4 °F 64.9 °F 70% 29.96 in 10.0 mi WNW 6.9 mph - N/A   Mostly Cloudy
11:55 AM 75.6 °F 66.2 °F 73% 29.97 in 10.0 mi WSW 8.1 mph - N/A   Mostly Cloudy
12:15 PM 76.1 °F 62.8 °F 63% 29.97 in 10.0 mi West 11.5 mph 17.3 mph N/A   Scattered Clouds
12:35 PM 76.6 °F 63.7 °F 64% 29.97 in 10.0 mi West 13.8 mph - N/A   Scattered Clouds
12:55 PM 76.8 °F 64.0 °F 65% 29.96 in 10.0 mi West 11.5 mph 16.1 mph N/A   Scattered Clouds
1:15 PM 77.9 °F 64.8 °F 64% 29.96 in 10.0 mi West 11.5 mph - N/A   Scattered Clouds
1:35 PM 77.5 °F 63.3 °F 61% 29.96 in 10.0 mi West 12.7 mph - N/A   Clear
1:55 PM 78.4 °F 64.4 °F 62% 29.96 in 10.0 mi WNW 10.4 mph - N/A   Clear
2:15 PM 78.4 °F 64.2 °F 62% 29.95 in 10.0 mi WNW 9.2 mph - N/A   Scattered Clouds
2:35 PM 79.0 °F 64.4 °F 61% 29.96 in 10.0 mi West 15.0 mph 20.7 mph N/A   Scattered Clouds
2:55 PM 78.3 °F 64.9 °F 63% 29.96 in 10.0 mi NNW 15.0 mph - N/A   Scattered Clouds
3:15 PM 76.3 °F 64.6 °F 67% 29.96 in 10.0 mi NW 10.4 mph - N/A   Mostly Cloudy
3:35 PM 76.3 °F 64.4 °F 67% 29.96 in 10.0 mi NW 11.5 mph - N/A   Mostly Cloudy
3:55 PM 77.2 °F 64.9 °F 66% 29.95 in 10.0 mi NNW 9.2 mph - N/A   Mostly Cloudy
4:15 PM 75.9 °F 64.6 °F 68% 29.95 in 10.0 mi NNW 6.9 mph - N/A   Mostly Cloudy
4:35 PM 75.2 °F 64.0 °F 68% 29.95 in 10.0 mi NW 6.9 mph - N/A   Mostly Cloudy
4:55 PM 77.2 °F 63.9 °F 63% 29.95 in 10.0 mi NNW 9.2 mph - N/A   Scattered Clouds
5:15 PM 73.6 °F 65.8 °F 77% 29.95 in 10.0 mi NNW 9.2 mph - N/A   Mostly Cloudy
5:35 PM 74.7 °F 65.1 °F 72% 29.96 in 10.0 mi NNW 11.5 mph - N/A   Mostly Cloudy
5:55 PM 74.3 °F 65.3 °F 73% 29.96 in 10.0 mi North 12.7 mph - N/A   Overcast
6:15 PM 73.0 °F 64.4 °F 74% 29.95 in 10.0 mi NNW 8.1 mph - N/A   Scattered Clouds
6:35 PM 72.0 °F 64.9 °F 78% 29.95 in 10.0 mi North 9.2 mph - N/A   Mostly Cloudy
6:55 PM 72.1 °F 65.1 °F 78% 29.96 in 10.0 mi NNW 5.8 mph - N/A   Overcast
7:15 PM 71.2 °F 65.3 °F 81% 29.96 in 10.0 mi NNE 9.2 mph - N/A   Overcast
7:35 PM 70.9 °F 65.7 °F 83% 29.97 in 10.0 mi NE 8.1 mph - N/A   Overcast
7:55 PM 69.8 °F 64.4 °F 83% 29.97 in 10.0 mi NE 11.5 mph - N/A   Overcast
8:15 PM 68.0 °F 64.8 °F 89% 29.97 in 10.0 mi ENE 9.2 mph - N/A Rain Light Rain
8:35 PM 67.3 °F 64.8 °F 92% 29.99 in 7.0 mi NE 8.1 mph - N/A Rain Rain
8:55 PM 66.7 °F 64.9 °F 94% 30.00 in 7.0 mi North 4.6 mph - 0.01 in Rain Rain
9:15 PM 66.2 °F 64.4 °F 94% 30.02 in 5.0 mi NNE 3.5 mph - 0.01 in Rain Heavy Rain
9:35 PM 65.7 °F 64.6 °F 96% 30.02 in 7.0 mi Calm Calm - 0.01 in   Light Drizzle
9:55 PM 65.7 °F 64.9 °F 98% 30.02 in 10.0 mi Calm Calm - 0.02 in Rain Light Rain
10:15 PM 66.2 °F 64.9 °F 96% 30.03 in 10.0 mi NNE 3.5 mph - N/A   Overcast
10:35 PM 66.2 °F 65.3 °F 97% 30.03 in 10.0 mi North 4.6 mph - N/A   Overcast
10:55 PM 66.0 °F 63.7 °F 92% 30.03 in 10.0 mi NE 8.1 mph - N/A   Overcast
11:15 PM 65.5 °F 63.5 °F 93% 30.03 in 10.0 mi NE 4.6 mph - N/A   Overcast
11:35 PM 65.3 °F 63.7 °F 94% 30.03 in 10.0 mi NNE 6.9 mph - N/A   Overcast
11:55 PM 64.9 °F 63.3 °F 94% 30.03 in 10.0 mi NE 5.8 mph - N/A   Overcast